When you browse on this site, cookies collect data to enhance your experience and personalize the content and advertising you see.
Visit our Privacy Policy to learn more. By continuing to use the site, you agree to this use of cookies and data.
  • en Suisse
  • Liste des pays
  • À 7 jours
  • Température de l'eau
  • Carte météo
  • Widgets météo
  • user-avatar
    Se connecter

    Météo par heure à Bretyanka

    Ce jour, 29 Janvier, Mercredi

    Heure Température Précipitation Vent Pression Humidité
    00:00 -1°C° 0 mm 4 m/s 728 mmHg 96%
    01:00 0°C° 0 mm 4 m/s 728 mmHg 95%
    02:00 0°C° 0 mm 4 m/s 727 mmHg 95%
    03:00 0°C° 0 mm 4 m/s 727 mmHg 95%
    04:00 0°C° 0 mm 4 m/s 726 mmHg 95%
    05:00 0°C° 0 mm 4 m/s 726 mmHg 95%
    06:00 +1°C° 0.3 mm 3 m/s 726 mmHg 96%
    07:00 +1°C° 0.3 mm 3 m/s 726 mmHg 96%
    08:00 0°C° 0.3 mm 3 m/s 726 mmHg 96%
    09:00 +1°C° 1.3 mm 2 m/s 726 mmHg 97%
    10:00 +1°C° 1.3 mm 2 m/s 726 mmHg 98%
    11:00 -1°C° 1.3 mm 2 m/s 726 mmHg 98%
    12:00 -1°C° 0.5 mm 2 m/s 726 mmHg 97%
    13:00 +1°C° 0.5 mm 2 m/s 726 mmHg 95%
    14:00 0°C° 0.5 mm 3 m/s 726 mmHg 94%
    15:00 0°C° 0.1 mm 3 m/s 726 mmHg 92%
    16:00 0°C° 0.1 mm 3 m/s 726 mmHg 90%
    17:00 -1°C° 0.1 mm 3 m/s 726 mmHg 88%
    18:00 -1°C° 0 mm 3 m/s 726 mmHg 87%
    19:00 -1°C° 0 mm 2 m/s 726 mmHg 86%
    20:00 -1°C° 0 mm 2 m/s 726 mmHg 85%
    21:00 -1°C° 0 mm 2 m/s 726 mmHg 87%
    22:00 -1°C° 0 mm 2 m/s 726 mmHg 88%
    23:00 -1°C° 0 mm 3 m/s 726 mmHg 89%

    Demain, 30 Janvier, Jeudi

    Heure Température Précipitation Vent Pression Humidité
    00:00 -1°C° 0 mm 3 m/s 726 mmHg 91%
    01:00 -1°C° 0 mm 3 m/s 727 mmHg 93%
    02:00 -1°C° 0 mm 3 m/s 727 mmHg 96%
    03:00 -2°C° 0.2 mm 4 m/s 727 mmHg 96%
    04:00 -2°C° 0.2 mm 5 m/s 727 mmHg 96%
    05:00 -1°C° 0.2 mm 5 m/s 727 mmHg 96%
    06:00 -1°C° 0.1 mm 5 m/s 727 mmHg 95%
    07:00 -1°C° 0.1 mm 5 m/s 728 mmHg 94%
    08:00 -3°C° 0.1 mm 6 m/s 728 mmHg 94%
    09:00 -2°C° 0 mm 6 m/s 728 mmHg 92%
    10:00 -2°C° 0 mm 6 m/s 728 mmHg 91%
    11:00 -2°C° 0 mm 6 m/s 728 mmHg 89%
    12:00 -1°C° 0.1 mm 5 m/s 729 mmHg 91%
    13:00 -1°C° 0.1 mm 5 m/s 729 mmHg 93%
    14:00 -1°C° 0.1 mm 5 m/s 729 mmHg 94%
    15:00 -1°C° 0.3 mm 5 m/s 730 mmHg 94%
    16:00 -1°C° 0.3 mm 5 m/s 730 mmHg 94%
    17:00 -1°C° 0.3 mm 5 m/s 730 mmHg 94%
    18:00 -1°C° 0.1 mm 5 m/s 730 mmHg 93%
    19:00 -2°C° 0.1 mm 4 m/s 730 mmHg 91%
    20:00 -2°C° 0.1 mm 4 m/s 730 mmHg 89%
    21:00 -3°C° 0 mm 4 m/s 730 mmHg 90%
    22:00 -2°C° 0 mm 3 m/s 729 mmHg 91%
    23:00 -4°C° 0 mm 3 m/s 729 mmHg 92%

    Après-demain, 31 Janvier, Vendredi

    Heure Température Précipitation Vent Pression Humidité
    00:00 -2°C° 0 mm 3 m/s 729 mmHg 93%
    01:00 -2°C° 0 mm 3 m/s 728 mmHg 95%
    02:00 -1°C° 0 mm 3 m/s 728 mmHg 96%
    03:00 -1°C° 0.3 mm 3 m/s 727 mmHg 97%
    04:00 0°C° 0.3 mm 3 m/s 727 mmHg 97%
    05:00 0°C° 0.3 mm 3 m/s 726 mmHg 97%
    06:00 0°C° 0.2 mm 3 m/s 726 mmHg 97%
    07:00 +1°C° 0.2 mm 2 m/s 726 mmHg 97%
    08:00 +1°C° 0.2 mm 2 m/s 726 mmHg 97%
    09:00 +1°C° 0 mm 2 m/s 726 mmHg 96%
    10:00 +1°C° 0 mm 2 m/s 726 mmHg 96%
    11:00 +1°C° 0 mm 2 m/s 726 mmHg 95%
    12:00 +2°C° 0 mm 2 m/s 727 mmHg 94%
    13:00 +2°C° 0 mm 2 m/s 727 mmHg 93%
    14:00 +2°C° 0 mm 2 m/s 728 mmHg 92%
    15:00 +2°C° 0 mm 2 m/s 728 mmHg 92%
    16:00 +1°C° 0 mm 2 m/s 729 mmHg 93%
    17:00 +1°C° 0 mm 2 m/s 729 mmHg 94%
    18:00 +1°C° 0 mm 2 m/s 730 mmHg 94%
    19:00 +1°C° 0 mm 2 m/s 731 mmHg 94%
    20:00 +2°C° 0 mm 1 m/s 732 mmHg 94%
    21:00 +2°C° 0 mm 1 m/s 732 mmHg 94%
    22:00 +1°C° 0 mm 1 m/s 732 mmHg 94%
    23:00 0°C° 0 mm 0 m/s 732 mmHg 94%

    1 Février, Samedi

    Heure Température Précipitation Vent Pression Humidité
    00:00 +1°C° 0 mm 1 m/s 733 mmHg 94%
    01:00 +1°C° 0 mm 1 m/s 733 mmHg 94%
    02:00 -1°C° 0 mm 2 m/s 733 mmHg 93%
    03:00 -1°C° 0.1 mm 2 m/s 733 mmHg 94%
    04:00 -1°C° 0.1 mm 2 m/s 732 mmHg 95%
    05:00 -1°C° 0.1 mm 3 m/s 732 mmHg 96%
    06:00 0°C° 0.5 mm 3 m/s 732 mmHg 97%
    07:00 0°C° 0.5 mm 3 m/s 732 mmHg 97%
    08:00 +1°C° 0.5 mm 3 m/s 732 mmHg 98%
    09:00 +1°C° 0 mm 3 m/s 732 mmHg 97%
    10:00 +1°C° 0 mm 4 m/s 732 mmHg 97%
    11:00 +1°C° 0 mm 4 m/s 731 mmHg 96%
    12:00 +1°C° 0.1 mm 4 m/s 731 mmHg 96%
    13:00 +1°C° 0.1 mm 4 m/s 731 mmHg 96%
    14:00 +1°C° 0.1 mm 4 m/s 731 mmHg 96%
    15:00 +3°C° 0.1 mm 4 m/s 731 mmHg 96%
    16:00 +3°C° 0.1 mm 4 m/s 730 mmHg 97%
    17:00 +3°C° 0.1 mm 4 m/s 730 mmHg 97%
    18:00 +3°C° 0.1 mm 4 m/s 730 mmHg 97%
    19:00 +3°C° 0.1 mm 4 m/s 729 mmHg 97%
    20:00 +4°C° 0.1 mm 4 m/s 729 mmHg 97%
    21:00 +4°C° 0.5 mm 4 m/s 729 mmHg 97%
    22:00 +4°C° 0.5 mm 4 m/s 728 mmHg 97%
    23:00 +4°C° 0.5 mm 4 m/s 728 mmHg 97%

    2 Février, Dimanche

    Heure Température Précipitation Vent Pression Humidité
    00:00 +4°C° 0.6 mm 4 m/s 727 mmHg 97%
    01:00 +5°C° 0.6 mm 4 m/s 727 mmHg 97%
    02:00 +5°C° 0.6 mm 5 m/s 726 mmHg 97%
    03:00 +5°C° 0.3 mm 5 m/s 725 mmHg 96%
    04:00 +5°C° 0.3 mm 5 m/s 725 mmHg 96%
    05:00 +5°C° 0.3 mm 5 m/s 724 mmHg 96%
    06:00 +5°C° 0.5 mm 5 m/s 724 mmHg 96%
    07:00 +6°C° 0.5 mm 5 m/s 723 mmHg 96%
    08:00 +6°C° 0.5 mm 5 m/s 723 mmHg 95%
    09:00 +5°C° 0.7 mm 6 m/s 724 mmHg 92%
    10:00 +5°C° 0.7 mm 7 m/s 724 mmHg 89%
    11:00 +5°C° 0.7 mm 8 m/s 725 mmHg 86%
    12:00 +4°C° 0.2 mm 8 m/s 726 mmHg 83%
    13:00 +4°C° 0.2 mm 8 m/s 727 mmHg 81%
    14:00 +2°C° 0.2 mm 8 m/s 727 mmHg 79%
    15:00 +3°C° 0 mm 7 m/s 728 mmHg 79%
    16:00 +3°C° 0 mm 6 m/s 728 mmHg 78%
    17:00 +2°C° 0 mm 5 m/s 729 mmHg 78%
    18:00 +2°C° 0.1 mm 5 m/s 729 mmHg 82%
    19:00 +2°C° 0.1 mm 5 m/s 729 mmHg 86%
    20:00 +2°C° 0.1 mm 5 m/s 730 mmHg 90%
    21:00 +2°C° 0.3 mm 5 m/s 730 mmHg 90%
    22:00 +2°C° 0.3 mm 6 m/s 730 mmHg 90%
    23:00 +3°C° 0.3 mm 6 m/s 730 mmHg 90%

    3 Février, Lundi

    Heure Température Précipitation Vent Pression Humidité
    00:00 +2°C° 0.1 mm 7 m/s 730 mmHg 87%
    01:00 +2°C° 0.1 mm 7 m/s 731 mmHg 83%
    02:00 +2°C° 0.1 mm 7 m/s 731 mmHg 80%
    03:00 0°C° 0 mm 7 m/s 731 mmHg 80%
    04:00 +1°C° 0 mm 6 m/s 731 mmHg 79%
    05:00 +1°C° 0 mm 6 m/s 731 mmHg 79%
    06:00 -1°C° 0 mm 6 m/s 731 mmHg 83%
    07:00 0°C° 0 mm 5 m/s 731 mmHg 86%
    08:00 0°C° 0 mm 5 m/s 732 mmHg 90%
    09:00 0°C° 0.2 mm 5 m/s 732 mmHg 91%
    10:00 0°C° 0.2 mm 5 m/s 732 mmHg 93%
    11:00 0°C° 0.2 mm 5 m/s 732 mmHg 94%
    12:00 0°C° 0.1 mm 5 m/s 732 mmHg 93%
    13:00 +1°C° 0.1 mm 5 m/s 732 mmHg 92%
    14:00 +1°C° 0.1 mm 5 m/s 732 mmHg 91%
    15:00 +1°C° 0.1 mm 5 m/s 733 mmHg 90%
    16:00 +1°C° 0.1 mm 4 m/s 733 mmHg 89%
    17:00 +1°C° 0.1 mm 4 m/s 733 mmHg 89%
    18:00 0°C° 0.1 mm 4 m/s 734 mmHg 89%
    19:00 0°C° 0.1 mm 4 m/s 734 mmHg 89%
    20:00 +1°C° 0.1 mm 3 m/s 734 mmHg 89%
    21:00 +1°C° 0 mm 3 m/s 734 mmHg 90%
    22:00 +1°C° 0 mm 3 m/s 735 mmHg 91%
    23:00 0°C° 0 mm 3 m/s 735 mmHg 92%
    Voir plus